Date String (YYYY-MM-DD hh:mm:ss) UTC,Instrument flags,Ambient pressure (hPa),Sample flow (lpm),Bypass flow (lpm),Sample temperature (°C),Ambient temperature (°C),ASC tube jacket temperature (°C),LED temperature (°C),Box temperature (°C),Sample RH (%),Span deviation,Mass concentration (μg/m³),Mass concentration (μg/m³),Mass concentration (μg/m³)
DateTimeUTC,F1_M11,P_M11,Q1_M11,Q2_M11,T1_M11,T2_M11,T3_M11,T4_M11,T5_M11,U1_M11,ZSPAN_M11,X0_M11,X2_M11,X1_M11
2021-09-27 13:00:00,,0826.5,5.00,0.00,30.5,28.9,00.0,39.6,32.0,10.0,0004.3,0014.51,0005.95,0004.93
2021-09-27 13:01:00,,0826.5,5.00,0.00,30.3,26.8,00.0,39.6,31.5,10.0,0004.2,0015.65,0006.00,0004.93
2021-09-27 13:02:00,,0826.5,4.99,0.00,30.2,26.3,00.0,39.5,31.4,10.1,0004.0,0015.97,0005.99,0004.93
2021-09-27 13:03:00,,0826.5,5.00,0.00,30.1,26.6,00.0,39.5,31.4,10.2,0003.7,0016.14,0005.99,0004.93
2021-09-27 13:04:00,,0826.5,5.01,0.00,30.0,27.1,00.0,39.4,31.4,10.2,0003.8,0015.82,0006.01,0004.93
2021-09-27 13:05:00,,0826.5,5.01,0.00,30.0,27.4,00.0,39.3,31.4,10.2,0003.7,0015.25,0006.00,0004.94
2021-09-27 13:06:00,,0826.5,4.99,0.00,29.9,27.7,00.0,39.3,31.4,10.3,0003.5,0015.24,0006.00,0004.94
2021-09-27 13:07:00,,0826.5,5.01,0.00,29.9,28.0,00.0,39.3,31.5,10.3,0003.2,0015.25,0006.05,0004.94
2021-09-27 13:08:00,,0826.5,5.00,0.00,29.9,28.2,00.0,39.2,31.6,10.3,0003.3,0015.06,0006.03,0004.95
2021-09-27 13:09:00,,0826.5,5.01,0.00,29.9,28.4,00.0,39.2,31.6,10.3,0003.5,0014.90,0006.00,0004.95
2021-09-27 13:10:00,,0826.5,5.00,0.00,30.0,28.5,00.0,39.2,31.6,10.3,0003.2,0014.33,0006.00,0004.97
2021-09-27 13:11:00,,0826.5,4.99,0.00,30.0,28.6,00.0,39.2,31.6,10.3,0002.8,0013.13,0005.98,0004.96
2021-09-27 13:12:00,,0826.5,4.99,0.00,30.0,28.7,00.0,39.2,31.7,10.3,0002.8,0011.69,0005.90,0004.95
2021-09-27 13:13:00,,0826.5,5.01,0.00,30.0,28.8,00.0,39.2,31.7,10.3,0003.0,0011.65,0005.87,0004.95
2021-09-27 13:14:00,,0826.5,4.99,0.00,30.0,28.8,00.0,39.2,31.7,10.3,0003.5,0011.20,0005.82,0004.95
2021-09-27 13:15:00,,0826.5,5.00,0.00,30.0,28.9,00.0,39.2,31.7,10.3,0003.6,0010.81,0005.80,0004.96
2021-09-27 13:16:00,,0826.5,4.98,0.00,30.0,28.9,00.0,39.2,31.7,10.3,0003.6,0010.59,0005.83,0004.96
2021-09-27 13:17:00,,0826.5,5.01,0.00,30.0,29.0,00.0,39.2,31.7,10.3,0003.7,0010.72,0005.85,0004.97
2021-09-27 13:18:00,,0826.5,5.00,0.00,30.1,29.0,00.0,39.2,31.7,10.3,0003.8,0010.76,0005.83,0004.97
2021-09-27 13:19:00,,0826.5,5.00,0.00,30.1,29.0,00.0,39.2,31.7,10.3,0003.5,0010.69,0005.82,0004.96
2021-09-27 13:20:00,,0826.5,5.00,0.00,30.1,29.0,00.0,39.2,31.7,10.3,0003.4,0010.56,0005.79,0004.97
2021-09-27 13:21:00,,0826.5,4.99,0.00,30.1,29.0,00.0,39.2,31.8,10.3,0003.2,0010.52,0005.79,0004.97
2021-09-27 13:22:00,,0826.5,5.01,0.00,30.1,29.0,00.0,39.2,31.8,10.3,0003.0,0011.68,0005.79,0004.98
2021-09-27 13:23:00,,0826.5,5.01,0.00,30.1,29.0,00.0,39.2,31.8,10.3,0002.8,0012.28,0005.81,0004.98
2021-09-27 13:24:00,,0826.5,5.01,0.00,30.1,29.1,00.0,39.2,31.9,10.3,0002.4,0012.08,0005.81,0004.98
2021-09-27 13:25:00,,0826.5,5.00,0.00,30.2,29.1,00.0,39.2,31.9,10.3,0001.9,0012.17,0005.83,0004.99
2021-09-27 13:26:00,,0826.5,5.00,0.00,30.2,29.1,00.0,39.2,31.9,10.3,0001.9,0012.82,0005.86,0004.99
2021-09-27 13:27:00,,0826.5,5.00,0.00,30.2,29.1,00.0,39.3,31.9,10.3,0002.2,0012.71,0005.82,0004.98
2021-09-27 13:28:00,,0826.5,5.00,0.00,30.2,29.1,00.0,39.3,31.9,10.3,0002.0,0012.62,0005.82,0004.98
2021-09-27 13:29:00,,0826.5,5.01,0.00,30.2,29.1,00.0,39.3,31.9,10.3,0001.8,0012.56,0005.83,0004.99
2021-09-27 13:30:00,,0826.5,5.00,0.00,30.2,29.1,00.0,39.3,31.9,10.3,0001.8,0012.95,0005.82,0004.99
2021-09-27 13:31:00,,0826.5,5.01,0.00,30.2,29.2,00.0,39.3,32.0,10.3,0002.2,0013.02,0005.83,0004.99
2021-09-27 13:32:00,,0826.5,5.00,0.00,30.2,29.2,00.0,39.3,32.0,10.3,0003.0,0013.05,0005.85,0004.98
2021-09-27 13:33:00,,0826.5,4.99,0.00,30.2,29.2,00.0,39.3,32.0,10.3,0003.9,0012.01,0005.88,0004.98
2021-09-27 13:34:00,,0826.5,5.00,0.00,30.3,29.2,00.0,39.3,32.0,10.4,0004.2,0011.43,0005.87,0004.97
2021-09-27 13:35:00,,0826.5,4.99,0.00,30.3,29.2,00.0,39.3,32.0,10.4,0004.0,0011.22,0005.88,0004.97
2021-09-27 13:36:00,,0826.5,5.00,0.00,30.3,29.2,00.0,39.4,32.0,10.4,0003.8,0011.34,0005.89,0004.96
2021-09-27 13:37:00,,0826.7,4.98,0.00,30.3,29.2,00.0,39.4,32.0,10.4,0003.6,0010.88,0005.84,0004.95
2021-09-27 13:38:00,,0826.7,5.01,0.00,30.3,29.2,00.0,39.4,32.0,10.4,0003.6,0011.24,0005.87,0004.96
2021-09-27 13:39:00,,0826.7,4.99,0.00,30.3,29.3,00.0,39.4,32.0,10.3,0003.6,0011.29,0005.89,0004.97
2021-09-27 13:40:00,,0826.7,5.01,0.00,30.3,29.3,00.0,39.4,32.0,10.3,0003.5,0011.87,0005.90,0004.96
2021-09-27 13:41:00,,0826.7,5.00,0.00,30.3,29.3,00.0,39.4,32.0,10.4,0003.2,0011.74,0005.93,0004.95
2021-09-27 13:42:00,,0826.7,4.99,0.00,30.4,29.3,00.0,39.4,32.1,10.4,0002.6,0012.50,0005.95,0004.95
2021-09-27 13:43:00,,0826.7,5.00,0.00,30.4,29.4,00.0,39.4,32.1,10.4,0002.1,0012.41,0005.92,0004.94
2021-09-27 13:44:00,,0826.7,5.00,0.00,30.4,29.4,00.0,39.4,32.1,10.4,0001.4,0012.29,0005.88,0004.94
2021-09-27 13:45:00,,0826.7,5.01,0.00,30.4,29.4,00.0,39.4,32.1,10.4,0001.0,0012.21,0005.88,0004.95
2021-09-27 13:46:00,,0826.7,5.00,0.00,30.4,29.4,00.0,39.5,32.1,10.4,0001.1,0012.17,0005.88,0004.95
2021-09-27 13:47:00,,0826.7,4.99,0.00,30.4,29.4,00.0,39.5,32.1,10.4,0001.2,0011.94,0005.86,0004.95
2021-09-27 13:48:00,,0826.7,5.01,0.00,30.4,29.4,00.0,39.5,32.1,10.4,0001.4,0012.09,0005.88,0004.96
2021-09-27 13:49:00,,0826.7,4.98,0.00,30.4,29.5,00.0,39.5,32.2,10.3,0001.2,0012.06,0005.91,0004.95
2021-09-27 13:50:00,,0826.7,5.00,0.00,30.5,29.5,00.0,39.5,32.1,10.4,0001.3,0011.80,0005.89,0004.93
2021-09-27 13:51:00,,0826.7,5.01,0.00,30.5,29.5,00.0,39.5,32.2,10.4,0001.3,0011.14,0005.84,0004.92
2021-09-27 13:52:00,,0826.7,5.01,0.00,30.5,29.5,00.0,39.5,32.2,10.6,0001.7,0011.23,0005.80,0004.93
2021-09-27 13:53:00,,0826.7,4.99,0.00,30.5,29.5,00.0,39.5,32.2,10.4,0002.2,0010.89,0005.80,0004.94
2021-09-27 13:54:00,,0826.7,4.99,0.00,30.5,29.5,00.0,39.6,32.2,10.4,0002.7,0011.36,0005.80,0004.94
2021-09-27 13:55:00,,0826.7,5.01,0.00,30.5,29.5,00.0,39.6,32.2,10.3,0003.0,0012.21,0005.83,0004.95
2021-09-27 13:56:00,,0826.7,5.00,0.00,30.5,29.5,00.0,39.6,32.2,10.3,0003.2,0013.57,0005.84,0004.95
2021-09-27 13:57:00,,0826.7,5.01,0.00,30.5,28.5,00.0,39.6,32.0,10.3,0003.3,0014.35,0005.86,0004.95
2021-09-27 13:58:00,,0826.7,4.98,0.00,30.4,26.7,00.0,39.5,31.6,10.4,0003.4,0014.31,0005.88,0004.94
2021-09-27 13:59:00,,0826.7,5.01,0.00,30.2,26.4,00.0,39.5,31.5,10.5,0002.9,0014.12,0005.89,0004.94
